• In Österreich
  • Länderverzeichnis
  • Für 7 Tage
  • Wassertemperatur
  • Satellitenkarten
  • Wetterkarte
  • News
  • Widgets
  • user-avatar
    Anmelden

    Stündliche Wetter Mayrhofen

    Heute, 15 August, Mittwoch

    Zeit Temperatur Niederschläge Wind Luftdruck Luftfeuchtigkeit
    00:00 +8°C° 0 mm 2 m/S 620 mmHg 95%
    01:00 +8°C° 0 mm 2 m/S 620 mmHg 95%
    02:00 +7°C° 0 mm 2 m/S 620 mmHg 95%
    03:00 +7°C° 0 mm 2 m/S 620 mmHg 95%
    04:00 +7°C° 0 mm 2 m/S 620 mmHg 95%
    05:00 +8°C° 0 mm 2 m/S 620 mmHg 93%
    06:00 +8°C° 0 mm 2 m/S 620 mmHg 92%
    07:00 +9°C° 0 mm 2 m/S 621 mmHg 90%
    08:00 +12°C° 0 mm 2 m/S 622 mmHg 82%
    09:00 +14°C° 0 mm 2 m/S 622 mmHg 74%
    10:00 +16°C° 0 mm 2 m/S 623 mmHg 66%
    11:00 +16°C° 0,1 mm 2 m/S 623 mmHg 62%
    12:00 +17°C° 0,1 mm 2 m/S 623 mmHg 59%
    13:00 +18°C° 0,1 mm 2 m/S 623 mmHg 56%
    14:00 +18°C° 0,1 mm 2 m/S 623 mmHg 58%
    15:00 +17°C° 0,1 mm 2 m/S 623 mmHg 60%
    16:00 +17°C° 0,1 mm 2 m/S 623 mmHg 61%
    17:00 +16°C° 0,2 mm 2 m/S 622 mmHg 70%
    18:00 +14°C° 0,2 mm 2 m/S 622 mmHg 78%
    19:00 +13°C° 0,2 mm 1 m/S 621 mmHg 86%
    20:00 +12°C° 0 mm 1 m/S 621 mmHg 89%
    21:00 +11°C° 0 mm 1 m/S 621 mmHg 92%
    22:00 +10°C° 0 mm 1 m/S 621 mmHg 95%
    23:00 +9°C° 0 mm 1 m/S 621 mmHg 96%

    Morgen, 16 August, Donnerstag

    Zeit Temperatur Niederschläge Wind Luftdruck Luftfeuchtigkeit
    00:00 +9°C° 0 mm 1 m/S 621 mmHg 96%
    01:00 +9°C° 0 mm 1 m/S 621 mmHg 96%
    02:00 +8°C° 0 mm 1 m/S 620 mmHg 95%
    03:00 +8°C° 0 mm 1 m/S 620 mmHg 95%
    04:00 +7°C° 0 mm 1 m/S 619 mmHg 94%
    05:00 +9°C° 0 mm 1 m/S 620 mmHg 91%
    06:00 +10°C° 0 mm 1 m/S 621 mmHg 87%
    07:00 +12°C° 0 mm 1 m/S 621 mmHg 83%
    08:00 +14°C° 0 mm 1 m/S 622 mmHg 72%
    09:00 +15°C° 0 mm 0 m/S 623 mmHg 62%
    10:00 +18°C° 0 mm 0 m/S 623 mmHg 51%
    11:00 +20°C° 0 mm 1 m/S 623 mmHg 48%
    12:00 +21°C° 0 mm 1 m/S 623 mmHg 46%
    13:00 +22°C° 0 mm 1 m/S 623 mmHg 43%
    14:00 +21°C° 0,1 mm 1 m/S 623 mmHg 46%
    15:00 +21°C° 0,1 mm 1 m/S 622 mmHg 49%
    16:00 +20°C° 0,1 mm 1 m/S 622 mmHg 52%
    17:00 +19°C° 0,1 mm 1 m/S 621 mmHg 62%
    18:00 +16°C° 0,1 mm 1 m/S 621 mmHg 72%
    19:00 +14°C° 0,1 mm 1 m/S 620 mmHg 82%
    20:00 +13°C° 0 mm 1 m/S 620 mmHg 86%
    21:00 +12°C° 0 mm 1 m/S 619 mmHg 89%
    22:00 +10°C° 0 mm 1 m/S 619 mmHg 92%
    23:00 +10°C° 0 mm 1 m/S 619 mmHg 92%

    übermorgen, 17 August, Freitag

    Zeit Temperatur Niederschläge Wind Luftdruck Luftfeuchtigkeit
    00:00 +10°C° 0 mm 1 m/S 619 mmHg 92%
    01:00 +10°C° 0 mm 1 m/S 619 mmHg 92%
    02:00 +10°C° 0 mm 1 m/S 619 mmHg 92%
    03:00 +9°C° 0 mm 1 m/S 618 mmHg 92%
    04:00 +9°C° 0 mm 1 m/S 618 mmHg 92%
    05:00 +10°C° 0 mm 1 m/S 619 mmHg 89%
    06:00 +12°C° 0 mm 1 m/S 619 mmHg 87%
    07:00 +13°C° 0 mm 1 m/S 620 mmHg 84%
    08:00 +15°C° 0 mm 1 m/S 621 mmHg 74%
    09:00 +18°C° 0 mm 1 m/S 621 mmHg 65%
    10:00 +20°C° 0 mm 1 m/S 622 mmHg 56%
    11:00 +21°C° 0,5 mm 1 m/S 622 mmHg 54%
    12:00 +21°C° 0,5 mm 1 m/S 622 mmHg 53%
    13:00 +21°C° 0,5 mm 2 m/S 622 mmHg 51%
    14:00 +20°C° 1,1 mm 2 m/S 622 mmHg 58%
    15:00 +19°C° 1,1 mm 2 m/S 621 mmHg 64%
    16:00 +18°C° 1,1 mm 2 m/S 621 mmHg 70%
    17:00 +17°C° 1,4 mm 2 m/S 620 mmHg 77%
    18:00 +15°C° 1,4 mm 1 m/S 620 mmHg 83%
    19:00 +14°C° 1,4 mm 1 m/S 620 mmHg 90%
    20:00 +13°C° 0,8 mm 1 m/S 620 mmHg 91%
    21:00 +12°C° 0,8 mm 1 m/S 620 mmHg 93%
    22:00 +12°C° 0,8 mm 1 m/S 620 mmHg 94%
    23:00 +11°C° 0,3 mm 1 m/S 620 mmHg 94%

    18 August, Samstag

    Zeit Temperatur Niederschläge Wind Luftdruck Luftfeuchtigkeit
    00:00 +11°C° 0,3 mm 1 m/S 620 mmHg 94%
    01:00 +11°C° 0,3 mm 1 m/S 620 mmHg 94%
    02:00 +10°C° 0,2 mm 1 m/S 620 mmHg 94%
    03:00 +10°C° 0,2 mm 1 m/S 620 mmHg 93%
    04:00 +10°C° 0,2 mm 1 m/S 620 mmHg 93%
    05:00 +11°C° 0,1 mm 1 m/S 620 mmHg 91%
    06:00 +12°C° 0,1 mm 1 m/S 621 mmHg 89%
    07:00 +12°C° 0,1 mm 1 m/S 621 mmHg 88%
    08:00 +14°C° 0,1 mm 1 m/S 622 mmHg 83%
    09:00 +15°C° 0,1 mm 1 m/S 623 mmHg 78%
    10:00 +16°C° 0,1 mm 1 m/S 623 mmHg 72%
    11:00 +18°C° 0,5 mm 1 m/S 623 mmHg 71%
    12:00 +18°C° 0,5 mm 1 m/S 623 mmHg 70%
    13:00 +18°C° 0,5 mm 2 m/S 623 mmHg 69%
    14:00 +17°C° 1 mm 2 m/S 623 mmHg 72%
    15:00 +17°C° 1 mm 2 m/S 623 mmHg 75%
    16:00 +17°C° 1 mm 2 m/S 623 mmHg 79%
    17:00 +16°C° 1 mm 2 m/S 623 mmHg 83%
    18:00 +15°C° 1 mm 1 m/S 622 mmHg 88%
    19:00 +13°C° 1 mm 1 m/S 622 mmHg 93%
    20:00 +13°C° 0,5 mm 1 m/S 623 mmHg 94%
    21:00 +13°C° 0,5 mm 1 m/S 623 mmHg 95%
    22:00 +12°C° 0,5 mm 1 m/S 623 mmHg 96%
    23:00 +12°C° 0,2 mm 1 m/S 623 mmHg 96%

    19 August, Sonntag

    Zeit Temperatur Niederschläge Wind Luftdruck Luftfeuchtigkeit
    00:00 +12°C° 0,2 mm 1 m/S 623 mmHg 96%
    01:00 +11°C° 0,2 mm 0 m/S 623 mmHg 96%
    02:00 +11°C° 0,1 mm 0 m/S 623 mmHg 97%
    03:00 +10°C° 0,1 mm 0 m/S 623 mmHg 97%
    04:00 +10°C° 0,1 mm 0 m/S 622 mmHg 97%
    05:00 +11°C° 0,1 mm 0 m/S 623 mmHg 95%
    06:00 +11°C° 0,1 mm 0 m/S 623 mmHg 94%
    07:00 +13°C° 0,1 mm 1 m/S 624 mmHg 92%
    08:00 +14°C° 0,1 mm 1 m/S 624 mmHg 86%
    09:00 +16°C° 0,1 mm 1 m/S 625 mmHg 79%
    10:00 +18°C° 0,1 mm 1 m/S 625 mmHg 73%
    11:00 +19°C° 0,5 mm 1 m/S 625 mmHg 70%
    12:00 +20°C° 0,5 mm 1 m/S 625 mmHg 67%
    13:00 +19°C° 0,5 mm 2 m/S 625 mmHg 64%
    14:00 +19°C° 1,4 mm 2 m/S 625 mmHg 67%
    15:00 +18°C° 1,4 mm 2 m/S 625 mmHg 70%
    16:00 +18°C° 1,4 mm 2 m/S 625 mmHg 74%
    17:00 +18°C° 1,2 mm 1 m/S 624 mmHg 80%
    18:00 +15°C° 1,2 mm 1 m/S 624 mmHg 86%
    19:00 +14°C° 1,2 mm 1 m/S 624 mmHg 92%
    20:00 +13°C° 0,4 mm 1 m/S 624 mmHg 93%
    21:00 +12°C° 0,4 mm 0 m/S 624 mmHg 94%
    22:00 +11°C° 0,4 mm 0 m/S 624 mmHg 96%
    23:00 +11°C° 0,1 mm 0 m/S 623 mmHg 96%

    20 August, Montag

    Zeit Temperatur Niederschläge Wind Luftdruck Luftfeuchtigkeit
    00:00 +10°C° 0,1 mm 0 m/S 623 mmHg 96%
    01:00 +10°C° 0,1 mm 0 m/S 623 mmHg 96%
    02:00 +9°C° 0 mm 0 m/S 623 mmHg 96%
    03:00 +9°C° 0 mm 0 m/S 622 mmHg 96%
    04:00 +9°C° 0 mm 0 m/S 622 mmHg 96%
    05:00 +10°C° 0 mm 0 m/S 623 mmHg 94%
    06:00 +11°C° 0 mm 0 m/S 623 mmHg 91%
    07:00 +12°C° 0 mm 0 m/S 624 mmHg 89%
    08:00 +14°C° 0 mm 0 m/S 625 mmHg 81%
    09:00 +16°C° 0 mm 0 m/S 625 mmHg 74%
    10:00 +18°C° 0 mm 0 m/S 626 mmHg 66%
    11:00 +21°C° 0,5 mm 1 m/S 626 mmHg 65%
    12:00 +21°C° 0,5 mm 1 m/S 626 mmHg 63%
    13:00 +21°C° 0,5 mm 1 m/S 626 mmHg 62%
    14:00 +21°C° 1,1 mm 1 m/S 626 mmHg 65%
    15:00 +20°C° 1,1 mm 2 m/S 626 mmHg 68%
    16:00 +19°C° 1,1 mm 2 m/S 625 mmHg 71%
    17:00 +19°C° 1 mm 1 m/S 625 mmHg 78%
    18:00 +16°C° 1 mm 1 m/S 624 mmHg 84%
    19:00 +15°C° 1 mm 1 m/S 624 mmHg 91%
    20:00 +14°C° 0,3 mm 1 m/S 624 mmHg 92%
    21:00 +13°C° 0,3 mm 1 m/S 624 mmHg 94%
    22:00 +13°C° 0,3 mm 1 m/S 624 mmHg 96%
    23:00 +12°C° 0 mm 1 m/S 624 mmHg 96%
    Mehr zeigen